AirNav   Pilot Hours Calculator
 
 1439 users online  

KHSD Sundance Airport
Oklahoma City, Oklahoma, USA

GOING TO OKLAHOMA CITY?


FAA INFORMATION EFFECTIVE 31 DECEMBER 2020

Location

FAA Identifier: HSD
Lat/Long: 35-36-06.6000N 097-42-22.2000W
35-36.110000N 097-42.370000W
35.6018333,-97.7061667
(estimated)
Elevation: 1192.9 ft. / 363.6 m (surveyed)
Variation: 04E (2020)
From city: 12 miles NW of OKLAHOMA CITY, OK
Time zone: UTC -6 (UTC -5 during Daylight Saving Time)
Zip code: 73099

Airport Operations

Airport use: Open to the public
Control tower: no
ARTCC: FORT WORTH CENTER
FSS: MC ALESTER FLIGHT SERVICE STATION
NOTAMs facility: HSD (NOTAM-D service available)
Attendance: 0600-2000
Wind indicator: lighted
Segmented circle: no
Lights: ACTVT MIRL RY 18/36 AND VASI RYS 18 & 36 - CTAF.
Beacon: white-green (lighted land airport)
Operates sunset to sunrise.

Airport Communications

CTAF/UNICOM: 122.7
WX AWOS-3: 120.975 (405-283-9848)
OKE CITY APPROACH: 124.6
OKE CITY DEPARTURE: 124.6
CLEARANCE DELIVERY: 123.7
WX ASOS at PWA (5 nm SE): PHONE 405-798-2013
WX AWOS-3 at RCE (9 nm SW): 125.05 (405-354-2617)
WX ASOS at OKC (14 nm S): PHONE 405-686-4711
WX AWOS-3 at RQO (17 nm SW): 118.475 (405-262-0087)

Nearby radio navigation aids

VOR radial/distance  VOR name  Freq  Var
PWAr317/5.0WILEY POST VOR/DME113.4008E
IRWr335/15.3WILL ROGERS VORTAC114.1007E
IFIr121/19.0KINGFISHER VORTAC114.7009E

Airport Services

Fuel available: 100LL JET-A
100LL AVBL 24 HR SELF-SERVE WITH CREDIT CARD.
Parking: hangars and tiedowns
Airframe service: MAJOR
Powerplant service: MAJOR
Bottled oxygen: HIGH/LOW
AVBL DRG NML OPR - MON-SAT.
Bulk oxygen: HIGH/LOW
AVBL DRG NML OPR- MON-SAT.

Runway Information

Runway 18/36

Dimensions: 5001 x 100 ft. / 1524 x 30 m
Surface: concrete, in good condition
Runway edge lights: medium intensity
RUNWAY 18  RUNWAY 36
Latitude: 35-36.521587N35-35.697898N
Longitude: 097-42.387280W097-42.351513W
Elevation: 1152.9 ft.1192.9 ft.
Traffic pattern: rightleft
Runway heading: 174 magnetic, 178 true354 magnetic, 358 true
Markings: nonprecision, in good conditionnonprecision, in good condition
Visual slope indicator: 2-box VASI on left (3.00 degrees glide path)
VASI UNUSABLE BYD 7 DEGS RIGHT & LEFT OF CNTRLN.
2-box VASI on left (3.00 degrees glide path)
VASI UNUSABLE BYD 7 DEGS LEFT OF CNTLRN.
Touchdown point: yes, no lightsyes, no lights
Instrument approach: LOCALIZER
Obstructions: none19 ft. trees, 382 ft. from runway, 135 ft. right of centerline, 9:1 slope to clear
+10 FT ROAD AT 103 FT, +3 FT FENCE AT 65 FT, +17 FT TREES 120 FT FM THLD AND 150 FT R.

Airport Ownership and Management from official FAA records

Ownership: Privately-owned
Owner: HUNTER GROUP LLC
13000 N. SARA RD.
YUKON, OK 73099
Phone 405-373-3886
Manager: JERRY HUNTER
13000 N. SARA RD.
YUKON, OK 73099
Phone 405-373-3886
JUSTIN SKAGGS GENERAL MANAGER 405-568-1663

Airport Operational Statistics

Aircraft based on the field: 210
Single engine airplanes: 170
Multi engine airplanes: 31
Jet airplanes: 8
Helicopters: 1
    
Aircraft operations: avg 124/day *
65% local general aviation
35% transient general aviation
<1% military
* for 12-month period ending 04 November 2019

Additional Remarks

FOR CD CTC OKE CITY APCH AT 405-681-5683.

Instrument Procedures

NOTE: All procedures below are presented as PDF files. If you need a reader for these files, you should download the free Adobe Reader.

NOT FOR NAVIGATION. Please procure official charts for flight.
FAA instrument procedures published for use from 31 December 2020 at 0901Z to 28 January 2021 at 0900Z.

 
STARs - Standard Terminal Arrivals
GULLI TWO   2 pages: [1] [2] (339KB)
 
IAPs - Instrument Approach Procedures
RNAV (GPS) RWY 18   download (220KB)
RNAV (GPS) RWY 36   download (192KB)
VOR RWY 18   download (195KB)
NOTE: Special Take-Off Minimums/Departure Procedures apply   download (851KB)

Other nearby airports with instrument procedures:

KPWA - Wiley Post Airport (5 nm SE)
KRCE - Clarence E Page Municipal Airport (9 nm SW)
KOKC - Will Rogers World Airport (14 nm S)
KRQO - El Reno Regional Airport (17 nm SW)
KTIK - Tinker Air Force Base (19 nm SE)
 
Loc | Ops | Rwys | IFR | FBO | Links
Com | Nav | Svcs | Stats | Notes
Area around KHSD (Sundance Airport)
 
Road maps at: MapQuest Bing Google
 
Aerial photo
WARNING: Photo may not be current or correct
Aerial photo of KHSD (Sundance Airport)
Photo taken 23-Jun-2016
looking south.

Do you have a better or more recent aerial photo of Sundance Airport that you would like to share? If so, please send us your photo.

 
Sectional chart

 
Airport diagram
CAUTION: Diagram may not be current
Diagram of KHSD (Sundance Airport)
 
Airport distance calculator
Flying to Sundance Airport? Find the distance to fly.

From to KHSD

Sunrise and sunset
Times for 25-Jan-2021
 Local
(UTC-6)
 Zulu
(UTC)
Morning civil twilight07:0913:09
Sunrise07:3713:37
Sunset17:5023:50
Evening civil twilight18:1700:17

Current date and time
Zulu (UTC)  25-Jan-2021 16:43:00
Local (UTC-6)  25-Jan-2021 10:43:00
 
METAR
KHSD 251615Z AUTO 27007KT 1/2SM FG OVC003 05/05 A2966 RMK A01
KPWA 
5nm SE 
251603Z 28009KT 1SM BR OVC002 06/04 A2965 RMK AO2 SFC VIS 1 1/4 T00560044
KRCE 
9nm SW 
251615Z AUTO 27008KT 1 3/4SM BR OVC004 05/05 A2965 RMK AO2
KOKC 
14nm S 
251552Z 28010KT 1/2SM R35R/4500VP6000FT -DZ FG OVC002 05/04 A2965 RMK AO2 DZE14B24 SLP043 P0000 T00500044
KRQO 
17nm SW 
251615Z AUTO 28009KT 2SM BR OVC002 05/05 A2967 RMK AO2 T00490048
KTIK 
20nm SE 
251356Z 30006KT 3/4SM R36/5000V6000FT BR VV001 06/06 A2961 RMK AO2A SLP036 T00550055
TAF
KOKC 
14nm S 
251427Z 2514/2612 28009KT 2SM -DZ BR OVC004 TEMPO 2514/2516 1/4SM -DZ FG VV002 FM251600 26013G20KT P6SM BKN012 TEMPO 2516/2518 BKN005 OVC020 FM252300 30013KT P6SM SCT250
KTIK 
20nm SE 
251300Z 2513/2616 34012KT 4800 BR OVC006 510053 QNH2952INS TEMPO 2513/2515 0800 FG VV001 BECMG 2517/2518 26012G18KT 9999 NSW BKN015 510013 QNH2957INS BECMG 2521/2522 26012KT 9999 BKN025 510033 QNH2959INS BECMG 2601/2602 34012KT 9999 BKN009 510033 QNH2968INS BECMG 2607/2608 33009KT 9999 SCT015 QNH2980INS TX14/2521Z TNM01/2610Z
NOTAMs
Click for the latest NOTAMs
NOTAMs are issued by the DoD/FAA and will open in a separate window not controlled by AirNav.

 

 
 

FBO, Fuel Providers, and Aircraft Ground Support

  
 Business Name 
 
 Contact 
 
 Services / Description 
 
Fuel Prices
 
Comments
  
Sundance Airport LLC UNICOM 122.70
405-373-3886
[web site]
[email]
New AWOS and NEVER A RAMP FEE. Maintenance Department offers MAJOR comprehensive repair including Annuals, and Sundance Flight Academy includes a Redbird FMX Simulator. New Courtesy Cars and completely remodeled, state-of-the-art FBO.
More info and photos of Sundance Airport LLC
 
AirBoss™ fuel program   AVTRIP   Crew cars   Enterprise Rent-A-Car   Hertz  
 
EPIC
100LL Jet A
FS $3.75 $3.10 
SS $3.45 --- 
GUARANTEED
AirBossMEMBERS
ONLY
Discounts
LoginJoin
 
   14 read write
FS=Full service
SS=Self service
Update Fuel Prices
 

Would you like to see your business listed on this page?

 If your business provides an interesting product or service to pilots, flight crews, aircraft, or users of the Sundance Airport, you should consider listing it here.  To start the listing process, click on the button below
 
Add a business
 

Other Pages about Sundance Airport

sundanceairport.com
 
Update a link
 
Copyright © AirNav, LLC. All rights reserved. Privacy Policy  Contact